EDT,Max TemperatureF,Mean TemperatureF,Min TemperatureF,Max Dew PointF,MeanDew PointF,Min DewpointF,Max Humidity, Mean Humidity, Min Humidity, Max Sea Level PressureIn, Mean Sea Level PressureIn, Min Sea Level PressureIn, Max VisibilityMiles, Mean VisibilityMiles, Min VisibilityMiles, Max Wind SpeedMPH, Mean Wind SpeedMPH, Max Gust SpeedMPH,PrecipitationIn, CloudCover, Events, WindDirDegrees
2013-8-1,85,76,67,67,65,62,93,72,51,30.00,29.91,29.83,10,8,2,18,4,24,0.17,6,Rain,218
2013-8-2,85,73,61,63,59,53,93,64,34,29.97,29.94,29.89,10,9,2,18,7,24,0.00,0,,232
2013-8-3,73,68,62,67,63,57,93,77,61,29.99,29.96,29.94,10,7,2,12,4,17,0.17,5,Rain,220
2013-8-4,80,68,56,63,56,48,97,66,35,30.06,29.99,29.96,10,5,0,18,7,28,0.00,2,Fog,331
2013-8-5,80,67,53,58,53,47,93,63,32,30.13,30.07,30.03,10,10,10,12,1,15,0.00,1,,265
2013-8-6,79,70,61,65,62,57,97,80,62,30.07,30.05,30.01,10,7,1,8,3,12,1.09,7,Rain,26
2013-8-7,84,75,66,72,68,64,93,79,65,30.07,30.04,29.98,10,8,2,16,4,18,0.32,7,Rain,152
2013-8-8,83,75,67,73,69,66,97,81,65,30.05,30.01,29.97,10,6,0,12,2,16,0.18,6,Fog-Rain,166
2013-8-9,84,79,73,74,71,68,93,77,61,29.99,29.92,29.89,10,8,2,20,6,24,0.20,6,Rain,227
2013-8-10,83,75,67,68,63,58,90,68,45,30.09,30.05,29.98,10,10,10,7,1,9,T,1,,314
2013-8-11,85,75,65,67,65,64,93,72,51,30.13,30.07,30.01,10,10,8,10,3,16,0.00,4,,145
2013-8-12,88,77,65,69,65,61,93,69,44,30.05,30.00,29.91,10,9,4,10,2,13,0.00,1,,290
2013-8-13,85,76,66,70,65,55,90,71,51,29.88,29.82,29.76,10,7,2,16,5,22,0.38,4,Rain,279
2013-8-14,74,64,54,52,47,45,86,64,41,30.13,30.02,29.90,10,10,10,21,10,28,0.00,1,,318
2013-8-15,77,63,48,53,48,44,93,64,35,30.22,30.16,30.12,10,10,9,6,2,,0.00,0,,173
2013-8-16,79,64,49,57,52,48,93,66,39,30.21,30.17,30.15,10,10,9,9,1,14,0.00,0,,103
2013-8-17,79,66,52,60,55,51,100,73,46,30.29,30.25,30.22,10,10,5,10,2,14,0.00,2,,97
2013-8-18,71,66,60,61,58,55,93,77,61,30.28,30.23,30.20,10,10,7,10,3,14,0.18,4,Rain,344
2013-8-19,78,68,58,67,62,56,97,83,69,30.19,30.13,30.08,10,6,1,6,1,8,0.06,5,Rain,125
2013-8-20,85,73,60,67,62,58,100,70,40,30.21,30.14,30.11,10,4,0,10,1,13,0.00,3,Fog,338
2013-8-21,87,74,61,70,65,59,97,76,55,30.22,30.15,30.08,10,8,2,12,2,17,0.06,1,Rain,169
2013-8-22,86,77,67,66,64,60,93,72,51,30.10,30.04,29.94,10,9,2,15,5,20,0.00,2,,242
2013-8-23,75,68,60,67,64,58,93,79,64,30.15,30.05,29.97,10,5,1,10,1,26,0.66,5,Rain,310
2013-8-24,81,69,57,61,58,52,100,68,36,30.35,30.25,30.17,10,5,0,8,1,12,0.00,2,Fog,74
2013-8-25,81,68,55,61,57,54,93,69,45,30.42,30.34,30.27,10,10,8,9,3,12,0.00,0,,179
2013-8-26,86,73,59,64,60,57,90,67,44,30.27,30.17,30.01,10,9,2,14,5,20,0.00,0,,231
2013-8-27,87,79,70,69,66,61,79,67,55,30.00,29.95,29.90,10,8,5,18,6,22,T,2,,246
2013-8-28,76,74,71,72,70,67,93,86,79,29.94,29.89,29.83,10,5,1,9,3,13,0.15,7,Rain,215
2013-8-29,85,76,67,70,68,64,93,72,51,30.03,29.96,29.87,10,6,2,10,4,13,0.00,6,,12
2013-8-30,87,75,63,69,65,62,100,76,51,30.04,30.00,29.88,10,4,1,14,4,17,0.00,1,,193
2013-8-31,88,80,71,72,69,66,93,72,50,29.88,29.84,29.80,10,8,2,10,3,14,0.36,3,Rain,199